SCP
0 0 0 0 0 0 0 0 0 0 0 0 0 0 0 0 0 0 0 0 0 0 0 0 0 0 0 0 0 0 0 0 0 0 0 0 0 0 0 0 0 0 0 0
0 0 0 0 0 0 0 0 0 0 0 0 -0 -0 0 0 0 0 0 0 0 0 0 0 0 0 0 0 0 0 0 0 0 0 0 0 0 0 0 0 0 0 0 0
0 0 0 0 0 0 0 0 0 0 0 0 0 0 0 0 0 0 0 0 0 0 0 0 0 0 0 0 0 0 0 0 0 0 0 0 0 0 0 0 0 0 0 0
0 0 0 -0 0 0 0 0 0 0 0 0 0 0 0 0 0 0 0 0 0 0 0 0 0 0 0 0 0 0 0 0 0 0 0 0 0 0 0 0 0 0 0 0
0 0 0 0 0 0 0 0 0 0 -0 0 -0 0 0 0 0 0 0 0 0 0 0 0 0 0 0 0 0 0 0 0 0 0 0 0 0 0 0 0 0 0 0 0
0 0 0 0 0 0 0 0 0 0 0 0 0 0 0 0 0 0 0 0 0 0 0 0 0 0 0 0 0 0 0 0 0 0 0 0 0 0 0 0 0 0 0 0
0 0 0 0 0 0 0 0 0 0 0 0 0 0 0 0 0 0 0 0 0 0 0 0 0 0 0 0 0 0 0 0 0 0 0 0 0 0 0 0 0 0 0 0
0 0 0 0 0 0 0 0 0 0 0 0 0 0 0 0 0 0 0 0 0 0 0 0 0 0 0 0 0 0 0 0 0 0 0 0 0 0 0 0 0 0 0 0
0 0 0 0 -0 0 0 0 0 0 0 0 0 0 0 0 0 0 0 0 0 0 0 0 0 0 0 0 0 0 0 0 0 0 0 0 0 0 0 0 0 0 0 0
0 0 0 -0 -0 0 0 0 0 0 -0 -0 0 0 0 0 0 0 0 0 0 0 0 0 0 0 0 0 0 0 0 0 0 0 0 0 0 0 0 0 0 0 0 0
0 0 0 0 -0 0 0 0 0 0 0 0 0 0 0 0 0 0 0 0 0 0 0 0 0 0 0 0 0 0 0 0 0 0 0 0 0 0 0 0 0 0 0 0
-0 0 0 0 0 0 0 0 0 0 0 0 0 0 0 0 0 0 0 0 0 0 0 0 0 0 0 0 0 0 0 0 0 0 0 0 0 0 0 0 0 0 0 0
0 -0 0 0 0 0 0 0 0 0 0 0 0 0 0 0 0 0 0 0 0 0 0 0 0 0 0 0 0 0 0 0 0 0 0 0 0 0 0 0 0 0 0 0
0 0 0 0 0 0 0 0 -0 -0 -0 0 0 0 0 0 0 0 0 0 0 0 0 0 0 0 0 0 0 0 0 0 0 0 0 0 0 0 0 0 0 0 0 0
0 0 -0 0 -0 0 -0 0 0 0 0 0 0 0 0 0 0 0 0 0 0 0 0 0 0 0 0 0 0 0 0 0 0 0 0 0 0 0 0 0 0 0 0 0
-0 0 0 -0 -0 -0 -0 0 0 0 0 0 0 0 0 0 0 0 0 0 0 0 0 0 0 0 0 0 0 0 0 0 0 0 0 0 0 0 0 0 0 0 0 0
-0 -0 -0 -0 -0 -0 -0 -0 -0 -0 -0 -0 -0 -0 0 0 0 0 0 0 0 0 0 0 0 0 0 0 0 0 0 0 0 0 0 0 0 0 0 0 0 0 0 0
-0 -0 -0 -0 -0 -0 -0 -0 -0 -0 -0 -0 0 0 0 0 0 0 0 0 0 0 0 0 0 0 0 0 0 0 0 0 0 0 0 0 0 0 0 0 0 0 0 0
-0 -0 -0 0 0 0 0 -0 0 0 0 0 0 0 0 0 0 0 0 0 0 0 0 0 0 0 0 0 0 0 0 0 0 0 0 0 0 0 0 0 0 0 0 0
0 0 0 0 0 0 0 0 0 0 0 0 0 0 0 0 0 0 0 0 0 0 0 0 0 0 0 0 0 0 0 0 0 0 0 0 0 0 0 0 0 0 0 0
0 0 0 0 0 0 0 0 0 0 0 0 0 0 0 0 0 0 0 0 0 0 0 0 0 0 0 0 0 0 0 0 0 0 0 0 0 0 0 0 0 0 0 0
0 0 0 0 0 0 0 0 0 0 0 0 0 0 0 0 0 0 0 0 0 0 0 0 0 0 0 0 0 0 0 0 0 0 0 0 0 0 0 0 0 0 0 0
0 0 0 0 0 0 0 0 0 0 0 0 0 0 0 -0 -0 0 0 0 0 0 0 0 0 0 0 0 0 0 0 0 0 0 0 0 0 0 0 0 0 0 0 0
0 0 0 0 0 0 0 0 0 0 0 -0 -0 0 0 0 0 0 0 0 0 0 0 0 0 0 0 0 0 0 0 0 0 0 0 0 0 0 0 0 0 0 0 0
0 0 0 0 0 0 0 0 0 0 -0 -0 -0 0 0 0 0 0 0 0 0 0 0 0 0 0 0 0 0 0 0 0 0 0 0 0 0 0 0 0 0 0 0 0
0 0 0 0 0 0 0 0 0 -0 -0 -0 0 0 0 0 0 0 0 0 0 0 0 0 0 0 0 0 0 0 0 0 0 0 0 0 0 0 0 0 0 0 0 0
0 0 0 0 0 0 0 0 -0 -0 0 0 0 0 0 0 0 0 0 0 0 0 0 0 0 0 0 0 0 0 0 0 0 0 0 0 0 0 0 0 0 0 0 0
Wind_Speed_500mb
10 11 6 5 6 5 15 17 11 10 9 10 9 7 11 10 16 27 37 43 47 48 52 54 52 52 49 46 45 43 44 43 41 40 39 37 38 39 41 42 41 41 41 38
8 4 3 2 10 11 8 8 12 11 18 14 6 4 7 22 28 35 39 48 49 50 50 53 51 47 45 41 39 39 36 33 33 33 33 32 33 35 38 40 41 42 41 40
8 8 6 9 10 9 5 13 8 10 12 23 14 10 4 16 25 26 43 49 47 46 46 46 49 47 43 37 35 32 30 28 27 28 29 30 31 33 36 36 39 40 42 41
6 7 7 8 3 3 9 6 10 8 15 18 18 29 22 15 16 33 35 35 41 42 43 44 44 45 43 40 34 30 28 27 27 29 31 33 34 33 33 34 35 36 37 39
3 2 5 6 10 6 7 6 11 17 22 15 36 22 12 35 22 17 28 33 38 37 42 42 41 38 35 32 28 24 22 23 23 24 26 28 29 28 31 34 34 35 36 38
2 3 4 3 10 10 4 4 11 5 21 17 30 7 6 44 30 11 10 24 34 36 39 40 37 32 29 27 22 21 20 18 17 18 19 22 23 24 27 27 28 30 31 32
7 5 4 5 21 4 4 8 26 27 26 19 8 8 32 29 20 11 6 22 33 37 38 35 34 30 27 22 21 21 19 19 19 20 20 18 19 21 22 21 22 24 25 27
5 6 4 33 2 8 7 19 27 31 30 22 20 23 21 16 10 8 12 21 30 34 32 29 25 22 19 16 17 16 17 17 17 16 16 16 16 15 15 15 15 18 19 21
8 6 6 16 18 20 19 16 21 26 29 23 25 19 15 11 8 9 9 16 19 22 25 24 20 16 15 14 18 17 16 17 16 14 12 11 9 10 8 7 9 11 13 15
4 6 3 15 12 32 28 27 27 22 21 19 21 17 13 7 4 4 6 9 13 15 16 18 20 22 23 21 20 18 16 12 10 10 11 10 9 8 6 4 3 4 6 9
4 5 2 9 30 33 37 33 30 23 22 22 19 16 13 8 5 2 3 5 9 12 14 16 17 17 18 17 15 14 14 15 15 14 13 11 8 6 4 3 2 3 6 8
4 6 8 16 37 31 36 33 30 29 26 20 21 17 14 11 8 6 5 5 9 11 11 13 14 15 16 16 15 15 16 15 14 12 10 9 7 5 3 1 2 4 7 9
8 33 26 21 20 29 29 27 24 23 24 25 21 16 12 10 6 4 6 5 8 10 12 12 13 13 13 13 12 12 12 12 10 9 7 5 4 5 9 10 12 13 15 18
18 16 1 21 20 28 23 20 20 19 21 23 20 17 15 13 9 6 1 2 5 7 8 9 10 10 10 10 12 12 12 12 12 12 12 12 15 17 19 21 23 24 25 31
11 12 9 12 12 17 20 21 24 29 27 24 21 19 16 13 9 5 1 3 6 8 10 11 10 9 11 15 16 17 18 19 21 22 23 25 27 30 32 36 38 39 37 36
5 7 10 20 24 27 28 29 32 32 30 28 24 22 21 17 11 4 4 6 8 10 11 11 10 20 25 25 25 27 28 30 32 34 35 37 38 42 45 47 50 52 53 51
11 11 20 26 27 30 32 31 30 30 29 27 27 25 21 18 16 13 14 15 17 17 20 23 22 30 32 33 35 35 37 38 39 42 45 48 51 53 53 56 58 59 60 53
24 24 23 23 24 25 26 28 28 29 30 31 29 28 27 25 23 22 23 24 26 27 26 31 33 35 36 38 41 42 44 46 48 51 52 55 57 58 61 62 64 67 69 67
24 21 19 19 19 20 21 22 24 26 27 29 31 32 33 34 36 36 38 37 36 40 36 38 40 42 44 47 50 53 54 57 58 59 60 63 66 67 68 69 70 70 68 66
14 10 10 11 12 14 18 23 29 32 36 40 43 44 44 41 45 49 51 54 49 50 51 49 49 48 50 52 55 59 61 62 62 63 62 62 61 60 58 56 53 52 50 49
4 4 5 7 12 18 25 30 35 40 45 50 55 57 61 59 57 57 57 58 46 48 49 50 52 51 51 52 53 54 52 51 51 51 50 51 51 50 50 50 49 49 49 49
2 5 6 11 18 24 31 37 43 50 55 56 56 57 57 53 46 41 37 42 32 34 37 37 37 40 43 45 47 47 47 48 49 50 50 50 50 51 52 52 53 54 55 55
7 10 13 18 24 31 36 43 50 55 60 59 55 49 45 42 41 44 42 33 38 40 45 43 42 45 48 52 53 53 55 56 57 57 57 57 58 58 59 58 56 55 54 51
14 17 20 25 32 40 47 52 56 56 57 48 42 42 44 46 42 37 49 52 50 50 51 50 50 51 53 57 58 58 58 58 58 57 57 57 57 56 54 52 50 46 43 40
18 22 24 30 37 46 53 58 59 50 44 38 32 33 40 46 59 60 57 57 56 57 58 54 51 49 50 50 51 51 51 51 49 48 48 48 47 45 44 42 40 38 36 34
24 26 29 37 46 52 56 57 54 45 46 52 52 50 49 49 53 57 58 56 54 52 51 48 46 45 46 46 47 48 49 49 48 48 47 47 46 45 42 39 35 32 30 28
30 30 37 43 48 53 52 46 46 48 52 60 66 61 63 62 59 55 53 51 49 47 47 46 46 45 45 45 46 45 45 44 43 42 41 41 39 37 35 32 29 26 24 22
Wind_Direction_500mb
282 257 242 229 249 268 246 257 248 250 222 277 291 310 288 274 171 177 183 177 173 177 176 178 181 184 189 193 198 204 208 209 212 216 222 226 228 229 232 233 234 235 238 242
287 43 156 247 347 314 300 318 270 243 275 338 351 279 195 224 189 185 186 183 180 184 185 183 185 191 192 193 195 197 201 206 213 218 223 228 232 233 233 233 234 237 240 243
280 333 348 41 330 340 23 30 322 16 346 329 332 291 275 254 221 217 209 189 191 195 195 195 190 188 183 184 193 199 204 211 218 223 226 230 233 236 237 236 237 239 241 244
278 346 33 234 126 323 80 51 15 319 315 314 306 314 4 6 285 247 235 208 201 197 194 187 181 173 177 188 197 206 214 220 222 227 231 233 234 236 238 239 241 242 243 245
103 221 124 36 3 6 356 343 11 342 337 324 324 317 43 6 348 301 256 228 210 193 187 184 182 183 183 189 193 201 210 220 226 229 232 235 238 240 243 243 243 246 247 247
355 96 45 255 315 209 228 354 358 340 345 338 335 17 358 346 350 349 231 224 200 188 186 187 184 188 188 187 187 207 215 219 226 233 236 238 240 241 240 239 240 243 246 247
253 92 357 304 315 177 32 307 328 343 338 343 2 317 313 331 339 8 150 185 189 182 182 185 187 185 186 194 199 199 201 208 213 218 222 225 230 233 236 240 243 247 248 251
15 72 17 343 11 56 310 326 323 337 342 331 335 329 340 352 16 54 125 152 169 176 180 182 185 190 190 186 191 196 203 207 209 213 217 219 224 231 238 239 244 252 254 251
29 60 70 62 72 28 16 330 337 330 338 330 334 337 349 16 47 89 120 150 164 177 178 180 182 178 181 186 202 198 197 198 200 201 205 209 215 230 242 253 259 264 261 253
128 40 101 67 51 24 17 3 352 349 342 341 334 335 346 356 24 87 140 165 166 169 169 173 176 184 188 193 192 189 184 174 182 186 190 192 197 205 214 228 260 269 274 263
51 43 24 86 20 359 360 0 2 8 0 352 345 337 334 333 317 260 189 174 167 165 179 190 187 183 182 181 178 169 164 164 168 167 164 158 150 141 123 86 22 330 313 315
294 49 308 302 335 343 349 353 359 0 6 8 356 352 340 327 315 269 215 220 228 206 188 187 188 182 178 175 174 170 165 166 165 162 159 156 149 137 107 43 350 319 311 310
299 312 312 326 300 343 356 357 5 7 9 4 5 359 359 351 333 297 245 186 191 194 186 184 193 183 180 181 184 183 183 188 186 192 199 206 234 275 290 288 287 290 291 287
1 6 44 352 337 353 6 19 20 25 23 24 28 24 19 9 354 322 310 156 190 204 191 195 192 193 200 207 215 221 227 234 243 251 255 261 266 270 275 275 275 276 278 278
9 24 2 343 13 38 38 40 37 38 33 28 22 24 25 23 18 19 59 213 226 217 207 200 205 224 236 244 248 251 254 259 262 264 269 273 276 279 281 282 283 283 277 268
49 49 62 62 58 56 53 54 48 39 38 37 29 21 16 16 26 25 316 279 257 247 242 230 244 257 256 259 260 263 265 265 267 270 271 274 279 279 279 281 281 281 281 284
146 99 79 65 57 53 50 44 39 37 31 27 26 24 20 10 357 343 318 297 286 282 271 265 261 261 265 266 269 271 270 271 272 273 277 279 279 280 281 280 282 282 282 282
94 87 79 71 64 59 51 43 35 29 23 18 11 4 356 346 336 325 313 304 296 291 290 283 281 280 278 277 277 277 277 277 278 279 281 282 284 283 283 283 282 283 284 283
98 88 73 58 45 38 32 27 19 11 2 353 345 338 332 326 319 312 304 299 296 293 290 284 281 281 279 278 276 276 277 278 280 281 282 281 280 281 281 282 283 284 285 285
102 79 56 43 35 21 8 0 355 349 342 335 328 322 315 308 303 299 297 295 297 296 290 288 285 280 277 277 278 279 280 281 281 281 280 280 281 282 282 283 285 286 287 287
107 44 33 21 1 355 349 342 336 331 328 324 320 318 314 314 311 307 304 299 303 291 288 286 284 284 283 283 282 283 283 283 281 281 281 281 282 283 283 283 284 284 287 288
350 344 336 332 335 336 333 330 329 326 324 321 318 315 313 315 314 310 312 308 312 307 300 298 295 291 290 288 287 286 284 283 282 281 281 281 281 282 284 284 285 286 286 286
340 326 313 316 322 325 327 327 327 325 322 322 323 321 320 323 324 323 323 320 316 312 305 303 299 294 291 287 286 285 283 283 282 282 282 282 283 283 284 286 287 286 287 288
333 324 318 320 323 324 326 327 327 326 324 328 327 323 325 324 321 320 314 315 313 308 303 301 297 293 289 288 287 286 284 283 282 282 282 281 281 282 283 284 285 287 288 289
328 326 323 322 323 326 327 327 328 330 327 331 334 328 321 318 315 320 316 313 310 307 304 303 300 296 291 289 288 287 286 286 285 283 282 282 282 282 282 283 285 287 288 288
332 329 325 326 328 330 329 328 331 336 334 332 331 332 327 323 318 314 314 313 312 311 309 309 307 303 299 296 294 292 291 289 287 285 283 280 280 279 280 281 283 284 285 287
331 328 326 330 330 330 331 333 333 337 336 332 328 333 329 326 324 323 322 322 320 319 318 317 314 311 307 303 299 296 293 290 287 285 283 282 280 280 279 279 278 279 281 283
Wind_Speed_850mb
10 11 6 5 6 5 15 17 11 10 9 10 9 7 11 10 16 27 37 43 47 48 52 54 52 52 49 46 45 43 44 43 41 40 39 37 38 39 41 42 41 41 41 38
8 4 3 2 10 11 8 8 12 11 18 14 6 4 7 22 28 35 39 48 49 50 50 53 51 47 45 41 39 39 36 33 33 33 33 32 33 35 38 40 41 42 41 40
8 8 6 9 10 9 5 13 8 10 12 23 14 10 4 16 25 26 43 49 47 46 46 46 49 47 43 37 35 32 30 28 27 28 29 30 31 33 36 36 39 40 42 41
6 7 7 8 3 3 9 6 10 8 15 18 18 29 22 15 16 33 35 35 41 42 43 44 44 45 43 40 34 30 28 27 27 29 31 33 34 33 33 34 35 36 37 39
3 2 5 6 10 6 7 6 11 17 22 15 36 22 12 35 22 17 28 33 38 37 42 42 41 38 35 32 28 24 22 23 23 24 26 28 29 28 31 34 34 35 36 38
2 3 4 3 10 10 4 4 11 5 21 17 30 7 6 44 30 11 10 24 34 36 39 40 37 32 29 27 22 21 20 18 17 18 19 22 23 24 27 27 28 30 31 32
7 5 4 5 21 4 4 8 26 27 26 19 8 8 32 29 20 11 6 22 33 37 38 35 34 30 27 22 21 21 19 19 19 20 20 18 19 21 22 21 22 24 25 27
5 6 4 33 2 8 7 19 27 31 30 22 20 23 21 16 10 8 12 21 30 34 32 29 25 22 19 16 17 16 17 17 17 16 16 16 16 15 15 15 15 18 19 21
8 6 6 16 18 20 19 16 21 26 29 23 25 19 15 11 8 9 9 16 19 22 25 24 20 16 15 14 18 17 16 17 16 14 12 11 9 10 8 7 9 11 13 15
4 6 3 15 12 32 28 27 27 22 21 19 21 17 13 7 4 4 6 9 13 15 16 18 20 22 23 21 20 18 16 12 10 10 11 10 9 8 6 4 3 4 6 9
4 5 2 9 30 33 37 33 30 23 22 22 19 16 13 8 5 2 3 5 9 12 14 16 17 17 18 17 15 14 14 15 15 14 13 11 8 6 4 3 2 3 6 8
4 6 8 16 37 31 36 33 30 29 26 20 21 17 14 11 8 6 5 5 9 11 11 13 14 15 16 16 15 15 16 15 14 12 10 9 7 5 3 1 2 4 7 9
8 33 26 21 20 29 29 27 24 23 24 25 21 16 12 10 6 4 6 5 8 10 12 12 13 13 13 13 12 12 12 12 10 9 7 5 4 5 9 10 12 13 15 18
18 16 1 21 20 28 23 20 20 19 21 23 20 17 15 13 9 6 1 2 5 7 8 9 10 10 10 10 12 12 12 12 12 12 12 12 15 17 19 21 23 24 25 31
11 12 9 12 12 17 20 21 24 29 27 24 21 19 16 13 9 5 1 3 6 8 10 11 10 9 11 15 16 17 18 19 21 22 23 25 27 30 32 36 38 39 37 36
5 7 10 20 24 27 28 29 32 32 30 28 24 22 21 17 11 4 4 6 8 10 11 11 10 20 25 25 25 27 28 30 32 34 35 37 38 42 45 47 50 52 53 51
11 11 20 26 27 30 32 31 30 30 29 27 27 25 21 18 16 13 14 15 17 17 20 23 22 30 32 33 35 35 37 38 39 42 45 48 51 53 53 56 58 59 60 53
24 24 23 23 24 25 26 28 28 29 30 31 29 28 27 25 23 22 23 24 26 27 26 31 33 35 36 38 41 42 44 46 48 51 52 55 57 58 61 62 64 67 69 67
24 21 19 19 19 20 21 22 24 26 27 29 31 32 33 34 36 36 38 37 36 40 36 38 40 42 44 47 50 53 54 57 58 59 60 63 66 67 68 69 70 70 68 66
14 10 10 11 12 14 18 23 29 32 36 40 43 44 44 41 45 49 51 54 49 50 51 49 49 48 50 52 55 59 61 62 62 63 62 62 61 60 58 56 53 52 50 49
4 4 5 7 12 18 25 30 35 40 45 50 55 57 61 59 57 57 57 58 46 48 49 50 52 51 51 52 53 54 52 51 51 51 50 51 51 50 50 50 49 49 49 49
2 5 6 11 18 24 31 37 43 50 55 56 56 57 57 53 46 41 37 42 32 34 37 37 37 40 43 45 47 47 47 48 49 50 50 50 50 51 52 52 53 54 55 55
7 10 13 18 24 31 36 43 50 55 60 59 55 49 45 42 41 44 42 33 38 40 45 43 42 45 48 52 53 53 55 56 57 57 57 57 58 58 59 58 56 55 54 51
14 17 20 25 32 40 47 52 56 56 57 48 42 42 44 46 42 37 49 52 50 50 51 50 50 51 53 57 58 58 58 58 58 57 57 57 57 56 54 52 50 46 43 40
18 22 24 30 37 46 53 58 59 50 44 38 32 33 40 46 59 60 57 57 56 57 58 54 51 49 50 50 51 51 51 51 49 48 48 48 47 45 44 42 40 38 36 34
24 26 29 37 46 52 56 57 54 45 46 52 52 50 49 49 53 57 58 56 54 52 51 48 46 45 46 46 47 48 49 49 48 48 47 47 46 45 42 39 35 32 30 28
30 30 37 43 48 53 52 46 46 48 52 60 66 61 63 62 59 55 53 51 49 47 47 46 46 45 45 45 46 45 45 44 43 42 41 41 39 37 35 32 29 26 24 22
Wind_Direction_850mb
282 257 242 229 249 268 246 257 248 250 222 277 291 310 288 274 171 177 183 177 173 177 176 178 181 184 189 193 198 204 208 209 212 216 222 226 228 229 232 233 234 235 238 242
287 43 156 247 347 314 300 318 270 243 275 338 351 279 195 224 189 185 186 183 180 184 185 183 185 191 192 193 195 197 201 206 213 218 223 228 232 233 233 233 234 237 240 243
280 333 348 41 330 340 23 30 322 16 346 329 332 291 275 254 221 217 209 189 191 195 195 195 190 188 183 184 193 199 204 211 218 223 226 230 233 236 237 236 237 239 241 244
278 346 33 234 126 323 80 51 15 319 315 314 306 314 4 6 285 247 235 208 201 197 194 187 181 173 177 188 197 206 214 220 222 227 231 233 234 236 238 239 241 242 243 245
103 221 124 36 3 6 356 343 11 342 337 324 324 317 43 6 348 301 256 228 210 193 187 184 182 183 183 189 193 201 210 220 226 229 232 235 238 240 243 243 243 246 247 247
355 96 45 255 315 209 228 354 358 340 345 338 335 17 358 346 350 349 231 224 200 188 186 187 184 188 188 187 187 207 215 219 226 233 236 238 240 241 240 239 240 243 246 247
253 92 357 304 315 177 32 307 328 343 338 343 2 317 313 331 339 8 150 185 189 182 182 185 187 185 186 194 199 199 201 208 213 218 222 225 230 233 236 240 243 247 248 251
15 72 17 343 11 56 310 326 323 337 342 331 335 329 340 352 16 54 125 152 169 176 180 182 185 190 190 186 191 196 203 207 209 213 217 219 224 231 238 239 244 252 254 251
29 60 70 62 72 28 16 330 337 330 338 330 334 337 349 16 47 89 120 150 164 177 178 180 182 178 181 186 202 198 197 198 200 201 205 209 215 230 242 253 259 264 261 253
128 40 101 67 51 24 17 3 352 349 342 341 334 335 346 356 24 87 140 165 166 169 169 173 176 184 188 193 192 189 184 174 182 186 190 192 197 205 214 228 260 269 274 263
51 43 24 86 20 359 360 0 2 8 0 352 345 337 334 333 317 260 189 174 167 165 179 190 187 183 182 181 178 169 164 164 168 167 164 158 150 141 123 86 22 330 313 315
294 49 308 302 335 343 349 353 359 0 6 8 356 352 340 327 315 269 215 220 228 206 188 187 188 182 178 175 174 170 165 166 165 162 159 156 149 137 107 43 350 319 311 310
299 312 312 326 300 343 356 357 5 7 9 4 5 359 359 351 333 297 245 186 191 194 186 184 193 183 180 181 184 183 183 188 186 192 199 206 234 275 290 288 287 290 291 287
1 6 44 352 337 353 6 19 20 25 23 24 28 24 19 9 354 322 310 156 190 204 191 195 192 193 200 207 215 221 227 234 243 251 255 261 266 270 275 275 275 276 278 278
9 24 2 343 13 38 38 40 37 38 33 28 22 24 25 23 18 19 59 213 226 217 207 200 205 224 236 244 248 251 254 259 262 264 269 273 276 279 281 282 283 283 277 268
49 49 62 62 58 56 53 54 48 39 38 37 29 21 16 16 26 25 316 279 257 247 242 230 244 257 256 259 260 263 265 265 267 270 271 274 279 279 279 281 281 281 281 284
146 99 79 65 57 53 50 44 39 37 31 27 26 24 20 10 357 343 318 297 286 282 271 265 261 261 265 266 269 271 270 271 272 273 277 279 279 280 281 280 282 282 282 282
94 87 79 71 64 59 51 43 35 29 23 18 11 4 356 346 336 325 313 304 296 291 290 283 281 280 278 277 277 277 277 277 278 279 281 282 284 283 283 283 282 283 284 283
98 88 73 58 45 38 32 27 19 11 2 353 345 338 332 326 319 312 304 299 296 293 290 284 281 281 279 278 276 276 277 278 280 281 282 281 280 281 281 282 283 284 285 285
102 79 56 43 35 21 8 0 355 349 342 335 328 322 315 308 303 299 297 295 297 296 290 288 285 280 277 277 278 279 280 281 281 281 280 280 281 282 282 283 285 286 287 287
107 44 33 21 1 355 349 342 336 331 328 324 320 318 314 314 311 307 304 299 303 291 288 286 284 284 283 283 282 283 283 283 281 281 281 281 282 283 283 283 284 284 287 288
350 344 336 332 335 336 333 330 329 326 324 321 318 315 313 315 314 310 312 308 312 307 300 298 295 291 290 288 287 286 284 283 282 281 281 281 281 282 284 284 285 286 286 286
340 326 313 316 322 325 327 327 327 325 322 322 323 321 320 323 324 323 323 320 316 312 305 303 299 294 291 287 286 285 283 283 282 282 282 282 283 283 284 286 287 286 287 288
333 324 318 320 323 324 326 327 327 326 324 328 327 323 325 324 321 320 314 315 313 308 303 301 297 293 289 288 287 286 284 283 282 282 282 281 281 282 283 284 285 287 288 289
328 326 323 322 323 326 327 327 328 330 327 331 334 328 321 318 315 320 316 313 310 307 304 303 300 296 291 289 288 287 286 286 285 283 282 282 282 282 282 283 285 287 288 288
332 329 325 326 328 330 329 328 331 336 334 332 331 332 327 323 318 314 314 313 312 311 309 309 307 303 299 296 294 292 291 289 287 285 283 280 280 279 280 281 283 284 285 287
331 328 326 330 330 330 331 333 333 337 336 332 328 333 329 326 324 323 322 322 320 319 318 317 314 311 307 303 299 296 293 290 287 285 283 282 280 280 279 279 278 279 281 283